Home   Weather   Leiden   Past weeks

Flag for Netherlands Past Weather in Leiden, Netherlands — Yesterday and Last 2 Weeks

Now
45 °F

Quite cool.


Feels Like: 41 °F
Forecast: 41 / 63 °F
Wind: 7 mph from Northeast

Location: Rotterdam Zestienhoven Airport

Current Time: Apr 29, 2017 at 11:34:10 pm

Latest Report: Apr 29, 2017 at 10:55 pm


Visibility: N/A

Pressure: 30.01 "Hg

Humidity: 76%

Dew Point: 37 °F

Location of LeidenLocation

Past Weather in Leiden — Graph

°F

Leiden Temperature Yesterday

Maximum temperature yesterday: 52 °F (at 12:55 pm)
Minimum temperature yesterday: 37 °F (at 11:25 pm)
Average temperature yesterday: 46 °F

High & Low Weather Summary for the Past Weeks

 TemperatureHumidityPressure
High55 °F (Apr 21, 10:55 am)100% (Apr 20, 12:55 am)30.63 "Hg (Apr 20, 12:55 am)
Low28 °F (Apr 20, 4:55 am)43% (Apr 20, 12:55 pm)29.71 "Hg (Apr 25, 2:25 am)
Average46 °F75%30.16 "Hg
* Reported Apr 19 8:55 am — Apr 29 10:25 pm, Leiden, Weather by CustomWeather, © 2017

Note: Actual official high and low records may vary slightly from our data, if they occured in-between our weather recording intervals... More about our weather records

Advertising

Leiden Weather History for the Previous 24 Hours

Scroll right to see more
 ConditionsComfort  
Time TempWeatherWind HumidityBarometerVisibility
10:25 pm
Sat, Apr 29
45 °FClear.5 mph76%30.01 "HgN/A
9:25 pm46 °FCool.6 mph71%30.01 "HgN/A
8:55 pm50 °FCool.7 mph62%30.01 "HgN/A
8:25 pm52 °FClear.9 mph58%30.01 "HgN/A
7:55 pm54 °FCool.10 mph54%30.01 "HgN/A
7:25 pm54 °FCool.8 mph54%30.01 "HgN/A
6:55 pm54 °FCool.8 mph54%30.01 "HgN/A
6:25 pm54 °FPassing clouds.7 mph58%30.01 "HgN/A
5:55 pm55 °FPassing clouds.3 mph55%30.04 "HgN/A
5:25 pm55 °FClear.7 mph59%30.04 "HgN/A
4:55 pm55 °FScattered clouds.7 mph55%30.04 "HgN/A
4:25 pm55 °FClear.3 mph55%30.04 "HgN/A
3:55 pm55 °FClear.6 mph51%30.04 "HgN/A
3:25 pm55 °FScattered clouds.3 mph55%30.07 "HgN/A
2:25 pm54 °FClear.2 mph54%30.07 "HgN/A
1:55 pm54 °FClear.3 mph58%30.07 "HgN/A
1:25 pm54 °FClear.3 mph58%30.07 "HgN/A
12:55 pm52 °FClear.3 mph62%30.07 "HgN/A
12:25 pm54 °FClear.1 mph54%30.07 "HgN/A
11:55 am54 °FClear.2 mph54%30.07 "HgN/A
11:25 am52 °FClear.2 mph62%30.07 "HgN/A
10:55 am54 °FCloudy.3 mph63%30.07 "HgN/A
10:25 am52 °FClear.3 mph72%30.07 "HgN/A
9:25 am50 °FCool.5 mph71%30.07 "HgN/A
8:55 am48 °FClear.6 mph76%30.07 "HgN/A
8:25 am46 °FCool.5 mph82%30.04 "HgN/A
7:55 am41 °FQuite cool.2 mph100%30.04 "HgN/A
7:25 am39 °FClear.3 mph93%30.04 "HgN/A
6:55 am36 °FChilly.2 mph100%30.04 "HgN/A
6:25 am36 °FClear.2 mph100%30.04 "HgN/A
5:55 am34 °FClear.2 mph100%30.04 "HgN/A
5:25 am37 °FChilly.1 mph100%30.04 "HgN/A
4:55 am36 °FChilly.2 mph93%30.04 "HgN/A
4:25 am36 °FChilly.1 mph100%30.04 "HgN/A
3:55 am37 °FPassing clouds.1 mph93%30.04 "HgN/A
2:55 am37 °FChilly.2 mph100%30.04 "HgN/A
2:25 am39 °FChilly.1 mph93%30.04 "HgN/A
1:55 am37 °FChilly.2 mph93%30.04 "HgN/A
1:25 am39 °FClear.3 mph87%30.04 "HgN/A
12:55 am37 °FPassing clouds.3 mph93%30.04 "HgN/A
12:25 am37 °FChilly.5 mph93%30.04 "HgN/A
11:55 pm
Fri, Apr 28
37 °FPassing clouds.3 mph87%30.04 "HgN/A
11:25 pm37 °FChilly.3 mph87%30.04 "HgN/A
Weather by CustomWeather, © 2017

See weather overviewHow to use our weather pages